This is the latest recevied weather packets stored in our database for station/object N3DXC. If no packets are shown the sender has not sent any weather packets the latest 10 day(s).
| Time | Temp. | Humidity | Pressure | Rain* | Wind** | Luminosity | Snow |
|---|---|---|---|---|---|---|---|
| 1777662301 | 8.89° C | 75% | 1011.8 hPa | 0 mm | - | - | - |
| 1777662001 | 8.89° C | 76% | 1011.7 hPa | 0 mm | - | - | - |
| 1777661702 | 8.89° C | 75% | 1011.7 hPa | 0 mm | - | - | - |
| 1777661401 | 8.89° C | 76% | 1011.7 hPa | 0 mm | - | - | - |
| 1777661101 | 8.89° C | 74% | 1011.8 hPa | 0 mm | - | - | - |
| 1777660801 | 8.33° C | 76% | 1011.9 hPa | 0 mm | - | - | - |
| 1777660501 | 8.89° C | 75% | 1012 hPa | 0 mm | - | - | - |
| 1777660201 | 8.89° C | 71% | 1012 hPa | 0 mm | - | - | - |
| 1777659902 | 8.89° C | 70% | 1011.9 hPa | 0 mm | - | - | - |
| 1777659601 | 9.44° C | 68% | 1011.8 hPa | 0 mm | - | - | - |
| 1777659303 | 8.89° C | 68% | 1011.6 hPa | 0 mm | - | - | - |
| 1777659002 | 8.89° C | 68% | 1011.4 hPa | 0 mm | - | - | - |
| 1777658701 | 8.89° C | 69% | 1011.6 hPa | 0 mm | - | - | - |
| 1777658403 | 9.44° C | 66% | 1011.7 hPa | 0 mm | - | - | - |
| 1777658102 | 9.44° C | 67% | 1011.6 hPa | 0 mm | - | - | - |
| 1777657802 | 9.44° C | 70% | 1011.7 hPa | 0 mm | - | - | - |
| 1777657501 | 9.44° C | 69% | 1011.6 hPa | 0 mm | - | - | - |
| 1777657201 | 10° C | 68% | 1011.8 hPa | 0 mm | - | - | - |
| 1777656902 | 10° C | 66% | 1011.9 hPa | 0 mm | - | - | - |
| 1777656601 | 10° C | 67% | 1011.9 hPa | 0 mm | - | - | - |
| 1777656302 | 10° C | 66% | 1011.9 hPa | 0 mm | - | - | - |
| 1777656001 | 10° C | 65% | 1011.9 hPa | 0 mm | - | - | - |
| 1777655702 | 10.56° C | 64% | 1011.9 hPa | 0 mm | - | - | - |
| 1777655402 | 10.56° C | 63% | 1011.9 hPa | 0 mm | - | - | - |
| 1777655104 | 10.56° C | 62% | 1011.9 hPa | 0 mm | - | - | - |
* Rain latest hour (hover to see other rain measurements)
** Current wind speed in m/s (hover to see current wind gust speed)